Wind_Speed
38 38 37 36 35 34 34 32 31 31 30 28 27 27 27 27 28 29 29 30 31 32 32 32 32 31 31 31 31 32 32 32 32 33 33 33 33 34
38 37 36 35 34 33 33 32 31 29 28 27 26 26 26 27 26 27 29 29 29 30 31 31 31 31 31 32 33 33 34 34 34 35 35 35 36 36
35 34 33 32 31 31 31 30 28 27 26 26 25 25 24 25 26 25 26 26 27 28 28 29 30 31 32 32 33 34 35 36 36 37 37 37 37 38
31 30 29 28 28 28 28 27 26 26 26 25 24 24 24 24 25 26 26 27 27 28 28 29 30 32 32 33 34 35 35 36 37 38 39 40 40 40
27 26 26 26 25 25 26 26 25 26 26 25 24 24 24 25 24 25 25 26 26 27 28 28 29 30 32 34 35 36 37 38 39 41 42 43 43 43
23 23 23 23 23 24 24 24 24 25 24 23 23 23 22 22 22 22 22 23 24 24 25 27 28 30 31 33 35 37 39 40 42 44 45 46 46 47
19 20 20 21 21 21 22 22 23 23 22 22 22 20 20 19 19 19 20 20 22 23 24 26 28 29 31 33 35 37 39 41 43 45 46 48 49 49
17 17 18 19 19 19 20 21 21 21 20 20 19 18 18 17 17 17 17 19 20 22 24 26 28 30 32 34 36 38 40 41 43 45 47 49 50 51
14 15 16 16 17 18 18 18 17 17 16 16 16 15 15 14 14 14 15 17 18 20 21 23 25 27 29 32 34 37 39 42 44 46 47 49 50 52
13 13 14 14 15 16 15 14 14 14 13 12 11 11 11 11 11 12 13 14 16 18 20 23 25 28 30 32 35 37 39 42 44 46 48 50 51 52
12 12 13 13 14 13 13 12 11 11 10 9 9 9 9 9 9 10 11 13 15 17 19 22 24 27 30 32 34 37 39 41 43 45 47 49 51 52
11 11 11 11 11 11 11 11 11 10 9 8 7 7 6 6 7 8 9 11 13 15 17 20 23 26 29 31 33 34 36 37 38 40 42 43 45 47
11 12 12 12 11 11 11 12 11 9 8 7 6 5 4 5 5 7 8 10 12 15 17 19 22 25 27 29 31 31 32 33 34 35 36 38 39 40
11 12 12 12 11 11 11 11 10 9 7 6 5 4 3 4 4 6 8 10 12 14 17 20 22 25 27 27 28 29 29 29 30 31 31 32 33 34
13 13 12 12 11 11 11 11 10 9 8 7 5 4 3 2 3 5 7 9 12 15 18 21 23 25 26 27 27 27 27 27 27 27 27 27 27 27
15 14 13 12 11 11 11 11 10 9 8 7 5 3 2 1 2 4 7 9 12 15 19 21 24 26 26 26 26 25 24 24 23 23 23 23 23 22
16 15 14 13 12 12 12 12 11 10 9 7 5 4 2 1 2 5 7 10 13 17 20 22 25 26 27 27 26 25 24 22 22 21 21 21 21 21
17 15 14 13 13 13 13 12 12 11 9 8 6 4 3 2 3 5 8 11 14 17 20 23 25 27 28 28 27 26 24 23 22 21 20 19 19 19
18 16 15 14 14 14 13 13 13 12 10 9 7 5 4 4 5 6 9 12 14 17 20 23 25 27 28 29 29 28 26 24 22 21 20 19 18 18
18 17 16 15 15 14 14 14 13 13 11 10 8 7 6 6 7 8 10 12 15 17 20 22 25 27 28 29 30 29 28 26 24 22 21 20 19 18
19 17 16 16 15 15 15 15 15 14 13 12 11 10 9 10 10 11 12 13 15 17 20 22 24 26 28 30 30 30 30 29 27 25 23 21 20 19
18 17 16 16 16 16 16 16 16 16 15 14 13 13 12 12 13 14 14 15 17 19 21 23 25 27 28 30 31 31 32 31 30 28 26 23 21 20
18 17 16 16 16 17 17 17 17 17 16 16 15 15 15 15 15 16 16 17 19 20 22 24 26 27 29 30 31 32 33 33 32 31 29 26 24 22
Wind_Direction
271 271 270 270 269 268 267 266 265 263 263 261 259 256 254 254 252 251 249 248 249 246 245 243 242 242 242 242 242 243 243 244 244 245 244 244 246 246
269 268 268 267 267 264 264 262 260 260 259 258 257 255 253 252 251 251 250 250 250 248 245 244 243 243 242 242 243 244 244 244 244 245 245 246 248 248
267 266 265 263 262 259 259 257 256 254 252 252 252 251 250 250 250 249 248 246 246 244 243 245 245 245 246 246 246 246 247 247 246 247 248 248 249 249
265 263 261 259 258 255 253 252 249 248 246 247 248 246 248 249 248 247 246 246 244 243 244 246 248 248 249 250 250 250 250 249 249 249 249 249 250 250
262 258 257 256 256 253 248 245 244 243 240 241 245 245 246 248 248 247 248 248 247 247 248 250 251 252 252 253 253 253 253 252 252 252 252 252 252 252
261 257 255 255 253 247 244 242 237 237 237 237 240 242 244 246 246 249 251 251 253 253 255 256 257 257 257 257 257 257 256 255 255 254 254 253 253 253
261 258 254 252 245 245 241 239 235 235 236 236 237 237 238 240 245 250 253 256 259 260 261 261 262 262 263 263 263 262 260 259 259 258 257 256 255 254
258 253 249 249 244 245 239 234 234 235 236 235 232 235 237 242 249 253 256 260 263 265 267 268 267 267 267 267 266 265 264 263 262 261 259 258 257 256
253 251 244 239 240 240 238 237 230 228 229 230 230 232 238 245 251 257 262 267 271 273 274 275 274 274 273 272 271 269 268 267 266 264 262 261 259 258
249 248 242 238 235 234 229 222 221 219 217 219 223 229 236 244 252 261 268 274 278 281 282 282 282 282 281 279 277 275 273 271 269 267 265 263 261 259
241 239 235 226 221 216 210 206 203 198 197 203 213 226 237 246 257 268 277 283 287 289 291 293 292 291 288 286 283 281 278 276 273 271 268 266 263 260
227 221 216 208 204 198 194 190 190 191 195 204 214 223 232 246 261 275 288 295 300 302 303 304 304 301 298 294 291 287 284 281 278 275 272 269 266 263
212 207 200 192 188 189 189 187 188 190 194 199 205 215 232 254 274 290 301 309 313 315 315 315 315 313 310 304 299 295 291 287 283 279 275 270 267 264
192 189 187 186 186 186 187 187 187 188 191 193 199 213 238 267 289 305 317 324 327 328 328 327 325 323 319 314 308 302 296 291 287 283 278 273 270 267
187 183 183 184 185 185 186 187 187 189 190 191 196 210 234 265 304 328 337 341 345 344 342 339 336 332 328 322 317 311 305 298 293 287 282 277 273 269
189 187 186 188 190 192 193 193 192 191 191 192 196 203 214 250 331 346 352 353 354 353 350 348 346 343 338 332 326 320 314 307 301 295 286 281 275 271
192 191 193 195 196 197 197 197 195 193 194 196 196 198 206 260 335 349 353 354 354 354 354 354 354 352 348 343 336 330 323 316 309 303 297 288 279 273
195 195 197 200 201 201 201 201 200 199 201 202 202 206 220 261 318 337 344 348 352 355 356 356 355 355 354 352 347 341 333 326 319 312 306 298 287 279
198 199 201 204 205 205 206 206 206 206 207 206 211 220 238 268 303 323 335 343 349 353 355 356 356 355 355 355 353 350 343 335 327 320 314 307 296 285
201 203 205 207 209 210 211 212 212 213 214 215 223 235 252 274 296 313 325 334 340 346 350 353 354 355 355 354 354 352 349 343 336 328 320 313 305 295
204 207 209 211 213 215 217 218 219 220 223 226 233 245 261 277 290 302 313 321 329 336 341 345 348 350 351 352 352 352 350 348 343 335 326 317 308 300
207 210 213 216 219 221 223 225 225 227 231 235 241 252 264 276 287 295 303 311 319 327 332 336 339 342 345 348 349 349 349 347 344 339 332 323 313 304
209 213 218 223 225 227 228 230 232 233 236 242 248 257 265 275 285 292 299 305 312 320 325 329 332 336 339 341 343 345 345 344 343 339 333 326 317 307
Height
5732 5733 5733 5734 5735 5736 5737 5739 5741 5742 5743 5744 5746 5748 5749 5751 5753 5755 5757 5759 5761 5763 5766 5768 5771 5774 5776 5779 5781 5783 5785 5787 5789 5792 5794 5796 5798 5800
5721 5722 5723 5723 5724 5726 5727 5729 5731 5733 5735 5736 5738 5740 5741 5743 5745 5747 5749 5751 5753 5755 5757 5760 5763 5765 5768 5770 5772 5774 5776 5778 5780 5783 5785 5787 5789 5791
5710 5711 5712 5713 5714 5716 5718 5720 5722 5724 5726 5728 5730 5732 5734 5736 5737 5739 5741 5743 5745 5747 5750 5752 5754 5757 5759 5761 5763 5765 5767 5769 5771 5773 5775 5777 5779 5781
5700 5701 5702 5703 5705 5707 5709 5711 5714 5716 5718 5720 5723 5725 5727 5729 5731 5733 5734 5736 5738 5740 5742 5744 5746 5748 5750 5752 5754 5756 5757 5759 5761 5763 5765 5766 5768 5770
5691 5693 5694 5696 5697 5699 5701 5703 5706 5708 5711 5713 5716 5718 5720 5722 5724 5726 5727 5729 5731 5733 5734 5736 5738 5740 5741 5743 5744 5746 5747 5749 5750 5752 5753 5755 5757 5758
5684 5685 5687 5688 5690 5691 5694 5696 5698 5701 5703 5706 5709 5711 5713 5716 5718 5719 5721 5723 5724 5726 5727 5728 5730 5731 5732 5733 5735 5735 5736 5737 5738 5740 5741 5743 5744 5746
5678 5679 5680 5682 5684 5685 5687 5689 5692 5695 5697 5700 5703 5705 5707 5709 5712 5713 5715 5716 5718 5719 5720 5721 5722 5722 5723 5724 5724 5724 5725 5726 5726 5727 5728 5729 5731 5732
5672 5673 5674 5676 5678 5679 5681 5684 5687 5689 5692 5694 5697 5700 5702 5705 5706 5708 5710 5711 5712 5713 5713 5713 5713 5713 5713 5714 5713 5713 5713 5713 5713 5714 5714 5715 5716 5718
5667 5668 5669 5671 5673 5675 5677 5679 5682 5684 5687 5690 5693 5695 5698 5700 5702 5703 5704 5705 5705 5705 5706 5705 5705 5705 5704 5703 5703 5702 5701 5701 5700 5699 5699 5700 5701 5702
5663 5664 5665 5667 5669 5671 5673 5676 5678 5681 5684 5686 5689 5692 5694 5696 5697 5698 5699 5699 5699 5699 5699 5698 5697 5696 5695 5693 5692 5690 5689 5687 5686 5685 5684 5684 5685 5686
5658 5660 5661 5663 5665 5668 5670 5673 5676 5678 5681 5684 5687 5689 5690 5692 5693 5694 5694 5694 5694 5694 5692 5691 5689 5687 5685 5683 5680 5678 5675 5673 5671 5670 5669 5668 5668 5669
5655 5657 5659 5661 5663 5666 5668 5671 5674 5677 5679 5682 5684 5686 5687 5688 5689 5690 5690 5690 5689 5688 5686 5684 5681 5678 5675 5672 5669 5665 5662 5660 5657 5655 5654 5653 5652 5653
5652 5654 5657 5659 5661 5664 5667 5670 5672 5675 5677 5679 5681 5683 5684 5685 5685 5686 5685 5685 5684 5682 5680 5677 5674 5670 5666 5662 5658 5654 5651 5648 5645 5643 5641 5640 5639 5639
5650 5652 5655 5657 5660 5663 5665 5668 5670 5673 5675 5677 5679 5680 5681 5682 5682 5682 5681 5680 5679 5677 5674 5671 5667 5663 5658 5653 5649 5645 5641 5638 5635 5632 5630 5629 5628 5627
5648 5650 5653 5656 5658 5661 5664 5666 5669 5671 5673 5675 5676 5678 5678 5679 5679 5679 5678 5676 5674 5672 5669 5665 5661 5656 5651 5646 5641 5637 5633 5629 5626 5624 5621 5620 5619 5618
5645 5648 5651 5654 5657 5659 5662 5664 5667 5669 5671 5672 5674 5675 5676 5676 5676 5675 5674 5673 5671 5668 5665 5661 5656 5651 5646 5640 5635 5631 5626 5622 5619 5616 5614 5612 5611 5610
5642 5645 5649 5652 5654 5657 5660 5662 5664 5667 5668 5670 5671 5672 5673 5673 5673 5672 5671 5669 5667 5664 5661 5657 5652 5647 5642 5636 5631 5626 5621 5617 5613 5610 5608 5606 5605 5604
5639 5642 5646 5649 5652 5654 5657 5660 5662 5664 5666 5667 5668 5669 5670 5670 5670 5669 5668 5666 5664 5661 5657 5653 5649 5644 5639 5633 5628 5622 5617 5613 5609 5606 5603 5601 5599 5598
5636 5639 5642 5646 5649 5651 5654 5657 5659 5661 5663 5664 5666 5666 5667 5667 5667 5666 5665 5663 5660 5658 5654 5650 5646 5641 5636 5631 5625 5620 5614 5609 5605 5602 5599 5596 5594 5593
5632 5636 5639 5642 5645 5648 5651 5653 5656 5658 5660 5661 5662 5663 5664 5664 5663 5662 5661 5659 5657 5654 5651 5647 5643 5639 5634 5629 5623 5618 5612 5607 5602 5598 5595 5592 5590 5588
5628 5632 5636 5639 5642 5645 5647 5650 5652 5654 5656 5657 5659 5659 5660 5660 5659 5658 5657 5655 5653 5651 5647 5644 5640 5636 5631 5626 5621 5615 5610 5604 5599 5595 5591 5588 5586 5584
5625 5629 5632 5635 5638 5641 5643 5646 5648 5650 5652 5653 5654 5655 5656 5655 5655 5654 5653 5651 5649 5646 5643 5640 5636 5632 5628 5623 5617 5612 5607 5601 5596 5591 5587 5584 5581 5579
5622 5625 5628 5631 5634 5637 5639 5642 5644 5646 5647 5649 5650 5650 5651 5651 5650 5649 5648 5646 5644 5641 5638 5635 5632 5628 5623 5619 5614 5609 5603 5598 5593 5588 5583 5579 5576 5574